Southern Pines, NC

6:15 PM EDT on May 24, 2017 (GMT -0400)
Moore County

Weather History for KSOP - September, 2011

Change the Weather History Date:

Friday, September 16, 2011

  Actual Average Record
Temperature  
Mean Temperature 55 °F -  
Max Temperature 57 °F 78 °F 93 °F (2005)
Min Temperature 53 °F 59 °F 48 °F (2000)
Degree Days  
Heating Degree Days 10    
Growing Degree Days 5 (Base 50)    
Moisture  
Dew Point 48 °F    
Average Humidity 77    
Maximum Humidity 88    
Minimum Humidity 59    
Precipitation  
Precipitation 0.07 in - - ()
Sea Level Pressure  
Sea Level Pressure 30.28 in    
Wind  
Wind Speed 7 mph (NE)    
Max Wind Speed 10 mph    
Max Gust Speed 17 mph    
Visibility 10 miles    
Events      
Averages and records for this station are not official NWS values.
T = Trace of Precipitation, MM = Missing Value Source: NWS Daily Summary

Daily Weather History Graph

Daily Weather History Graph

Search for Another Location

Airport or City:

Trip Planner

Search our weather history database for the weather conditions in past years. The results will help you decide how hot, cold, wet, or windy it might be!

Date:

Astronomy

Sep. 16, 2011 Rise Set
Actual Time 7:00 AM EDT 7:23 PM EDT
Civil Twilight 6:35 AM EDT 7:48 PM EDT
Nautical Twilight 6:05 AM EDT 8:18 PM EDT
Astronomical Twilight 5:35 AM EDT 8:48 PM EDT
Moon 9:25 PM EDT (9/16) 10:52 AM EDT (9/16)
Length of Visible Light 13h 13m
Length of Day
12h 22m
Waning Gibbous, 84% of the Moon is Illuminated
Sep 16
Waning Gibbous
Sep 20
Last Quarter
Sep 27
New
Oct 3
First Quarter
Oct 11
Full

Hourly Weather History & Observations

Time (EDT) Temp. Dew Point Humidity Pressure Visibility Wind Dir Wind Speed Gust Speed Precip Events Conditions
1:35 PM 57.2 °F 42.8 °F 59% 30.29 in 10.0 mi ENE 10.4 mph 17.3 mph N/A   Overcast
1:55 PM 57.2 °F 42.8 °F 59% 30.29 in 10.0 mi NE 9.2 mph - N/A   Overcast
2:15 PM 57.2 °F 42.8 °F 59% 30.29 in 10.0 mi NE 10.4 mph - N/A   Overcast
2:35 PM 55.4 °F 46.4 °F 72% 30.29 in 9.0 mi NE 8.1 mph - N/A   Overcast
2:55 PM 53.6 °F 46.4 °F 77% 30.28 in 10.0 mi NE 5.8 mph - 0.03 in   Overcast
3:15 PM 55.4 °F 48.2 °F 77% 30.28 in 10.0 mi NE 5.8 mph - N/A   Overcast
3:35 PM 55.4 °F 48.2 °F 77% 30.28 in 10.0 mi Calm Calm - N/A   Overcast
3:55 PM 55.4 °F 46.4 °F 72% 30.27 in 10.0 mi NE 5.8 mph - N/A   Overcast
4:15 PM 55.4 °F 46.4 °F 72% 30.27 in 10.0 mi NE 8.1 mph - N/A   Overcast
4:35 PM 55.4 °F 46.4 °F 72% 30.27 in 10.0 mi NE 6.9 mph - N/A   Overcast
4:55 PM 53.6 °F 48.2 °F 82% 30.27 in 10.0 mi NE 5.8 mph - 0.01 in   Overcast
5:15 PM 55.4 °F 48.2 °F 77% 30.27 in 10.0 mi NE 6.9 mph - N/A   Overcast
5:35 PM 55.4 °F 48.2 °F 77% 30.27 in 10.0 mi NE 5.8 mph - N/A   Overcast
5:55 PM 55.4 °F 48.2 °F 77% 30.27 in 10.0 mi ENE 8.1 mph - N/A   Overcast
6:15 PM 55.4 °F 48.2 °F 77% 30.27 in 10.0 mi NE 4.6 mph - N/A   Overcast
6:35 PM 55.4 °F 48.2 °F 77% 30.27 in 10.0 mi NE 6.9 mph - N/A   Overcast
6:55 PM 55.4 °F 48.2 °F 77% 30.27 in 10.0 mi NE 3.5 mph - N/A   Overcast
7:15 PM 55.4 °F 48.2 °F 77% 30.27 in 10.0 mi NE 3.5 mph - 0.01 in   Overcast
7:35 PM 55.4 °F 50.0 °F 82% 30.27 in 10.0 mi NE 3.5 mph - 0.01 in   Overcast
7:55 PM 55.4 °F 48.2 °F 77% 30.27 in 10.0 mi NE 4.6 mph - 0.01 in   Overcast
8:35 PM 55.4 °F 48.2 °F 77% 30.29 in 9.0 mi NE 4.6 mph - 0.02 in   Overcast
9:15 PM 53.6 °F 50.0 °F 88% 30.29 in 10.0 mi NE 3.5 mph - N/A   Overcast
9:35 PM 53.6 °F 50.0 °F 88% 30.29 in 10.0 mi NE 4.6 mph - N/A   Overcast
9:55 PM 53.6 °F 50.0 °F 88% 30.29 in 10.0 mi NNE 5.8 mph - N/A   Overcast
10:15 PM 53.6 °F 48.2 °F 82% 30.30 in 10.0 mi NNE 3.5 mph - N/A   Overcast
10:35 PM 53.6 °F 48.2 °F 82% 30.29 in 10.0 mi NE 5.8 mph - N/A   Overcast
10:55 PM 53.6 °F 48.2 °F 82% 30.29 in 10.0 mi NE 4.6 mph - N/A   Overcast
11:15 PM 53.6 °F 48.2 °F 82% 30.29 in 10.0 mi NNE 4.6 mph - N/A   Overcast
11:35 PM 53.6 °F 48.2 °F 82% 30.28 in 10.0 mi NNE 4.6 mph - N/A   Overcast
11:55 PM 53.6 °F 48.2 °F 82% 30.28 in 10.0 mi NNE 4.6 mph - N/A   Overcast